Flag for Switzerland Weather past 2 weeks in Reinach, Basel-Land, Switzerland

Now
82 °F

Passing clouds.


Feels Like: 87 °F
Forecast: 72 / 96 °F
Wind: 1 mph from Southeast

Location: Bale-Mulhouse

Current Time: Jul 4, 2015 at 11:36:04 PM

Latest Report: Jul 4, 2015 at 10:00 PM


Visibility: 19 mi

Pressure: 30.05 "Hg

Humidity: 73%

Dew point: 72 °F

Location of ReinachLocation

Historic Weather in Reinach — Graph

°F

Reinach temperature yesterday

Maximum temperature yesterday: 96 °F (at 5:00 PM)
Minimum temperature yesterday: 70 °F (at 6:00 AM)
Average temperature yesterday: 84 °F

Past Weeks' High & Low Weather Summary

 TemperatureHumidityPressure
High97 °F (Jul 4, 5:00 PM)98% (Jun 24, 5:00 AM)30.23 "Hg (Jun 24, 5:00 AM)
Low45 °F (Jun 24, 6:00 AM)28% (Jun 26, 3:00 PM)29.75 "Hg (Jun 22, 10:00 PM)
Average70 °F67%30.10 "Hg
* Reported Jun 19 10:00 PM — Jul 4 10:00 PM, Reinach, Weather by CustomWeather, © 2015

Note: Actual official high and low records may vary slightly from our data, if they occured in-between our weather recording intervals... More about our weather records

Advertising

Reinach weather history for previous 24 hours

 ConditionsComfort  
Time TempWeatherWind HumidityBarometerVisibility
10:00 PM
Sat, Jul 4
82 °FPassing clouds.1 mph73%30.05 "Hg19 mi
9:00 PM85 °FPassing clouds.5 mph67%30.04 "Hg19 mi
8:00 PM92 °FPassing clouds.3 mph52%30.04 "Hg19 mi
7:00 PM95 °FPassing clouds.6 mph42%30.03 "Hg19 mi
6:00 PM96 °FScattered clouds.5 mph35%30.04 "Hg19 mi
5:00 PM97 °FPassing clouds.3 mph36%30.05 "Hg19 mi
4:00 PM96 °FPassing clouds.3 mph34%30.06 "Hg19 mi
3:00 PM96 °FPassing clouds.5 mph34%30.07 "Hg19 mi
2:00 PM93 °FScattered clouds.6 mph34%30.10 "Hg16 mi
1:00 PM92 °FScattered clouds.6 mph39%30.11 "Hg16 mi
12:00 PM90 °FScattered clouds.2 mph44%30.12 "Hg16 mi
11:00 AM87 °FScattered clouds.2 mph45%30.13 "Hg16 mi
10:00 AM85 °FPartly sunny.3 mph48%30.14 "Hg16 mi
9:00 AM81 °FPartly sunny.3 mph60%30.15 "Hg16 mi
8:00 AM77 °FPartly sunny.6 mph65%30.15 "Hg16 mi
7:00 AM72 °FOvercast.6 mph77%30.14 "Hg19 mi
6:00 AM70 °FScattered clouds.6 mph82%30.14 "Hg16 mi
5:00 AM71 °FPassing clouds.5 mph81%30.13 "Hg9 mi
4:00 AM70 °FMild.3 mph85%30.13 "Hg11 mi
3:00 AM70 °FMild.No wind88%30.14 "Hg13 mi
2:00 AM70 °FMild.2 mph89%30.14 "Hg12 mi
1:00 AM72 °FMild.3 mph83%30.13 "Hg13 mi
12:00 AM75 °FClear.3 mph76%30.13 "Hg14 mi
11:00 PM
Fri, Jul 3
82 °FPassing clouds.1 mph60%30.11 "Hg14 mi
Weather by CustomWeather, © 2015

See weather overviewHow to use our weather pages